Location: Haliburton Scout Reserve
(45.0900°N, 78.3200°W)
Time: 01:52:06
(UTC-04:00)

NANOSAT C BR1 - Pass Details

Date: 22 May 2022
Orbit: 583 x 601 km, 98.0° (Epoch: 27 June)

Event Time Altitude Azimuth Distance (km) Brightness Sun altitude
Rises 04:07:34 0° 3° (N) 2,823 ? -13.0°
Reaches altitude 10° 04:09:56 10° 352° (N) 1,916 ? -12.8°
Maximum altitude 04:13:32 29° 292° (WNW) 1,078 ? -12.3°
Enters shadow 04:15:58 17° 242° (WSW) 1,517 ? -12.0°
